LEMUR-2-SATCHMO

Last updated on Wed Feb 14 2018 16:20:27 GMT+0000 (Coordinated Universal Time)

1 41991U 17008AV 18045.21030265 .00001235 00000-0 55503-4 0 9990 2 41991 97.4649 110.4924 0009379 73.7890 286.4378 15.23015096 54681

Satellite not in orbit

LEMUR-2-SATCHMO